User: anonymous   Login
Location: Unspecified
(0.0000°N, 0.0000°E)
Time: 22:48:10
(UTC+02:00)
Language:

Cosmos 540 Rocket - Orbit

View from above orbital plane
View from above orbital plane
View from above satellite
View from above satellite

Ground track
Ground track

The orbit data is extracted from the following two-line orbital elements,

1 06324U 72104B   16243.21229470  .00000112  00000-0  41029-4 0  9996
2 06324  74.0762 285.1851 0008259 146.1494 214.0192 14.43318112293591
Epoch (UTC): 30 August 2016 05:05:42
Eccentricity: 0.0008259
inclination: 74.0762°
perigee height: 741 km
apogee height: 753 km
right ascension of ascending node: 285.1851°
argument of perigee: 146.1494°
revolutions per day: 14.43318112
mean anomaly at epoch: 214.0192°
orbit number at epoch: 29359

The dashed part of the orbit path shows where the satellite is in the earth's shadow,  

DLR